Weather History for Spokane Fairchild, WA

Change the Weather History Date:

Sunday, September 1, 2013

  Actual Average Record
Temperature  
Mean Temperature 73 °F -  
Max Temperature 91 °F 75 °F 91 °F (1998)
Min Temperature 55 °F 50 °F 40 °F (2008)
Cooling Degree Days 8    
Growing Degree Days 23 (Base 50)    
Moisture  
Dew Point 45 °F    
Average Humidity 33    
Maximum Humidity 58    
Minimum Humidity 18    
Precipitation  
Precipitation 0.00 in - - ()
Sea Level Pressure  
Sea Level Pressure 29.85 in    
Wind  
Wind Speed 8 mph (East)    
Max Wind Speed 15 mph    
Max Gust Speed 22 mph    
Visibility 10 miles    
Events Rain    
Averages and records for this station are not official NWS values.
T = Trace of Precipitation, MM = Missing Value Source: NWS Daily Summary

Daily Weather History Graph

Daily Weather History Graph

Search for Another Location

Airport:

Trip Planner

Search our weather history database for the weather conditions in past years. The results will help you decide how hot, cold, wet, or windy it might be!

Date:

Astronomy

Sep. 01, 2013 Rise Set
Actual Time 6:09 AM PDT 7:30 PM PDT
Civil Twilight 5:37 AM PDT 8:02 PM PDT
Nautical Twilight 4:59 AM PDT 8:40 PM PDT
Astronomical Twilight 4:17 AM PDT 9:21 PM PDT
Moon 2:25 AM PDT (9/1) 5:18 PM PDT (9/1)
Length of Visible Light 14h 24m
Length of Day
13h 20m
Waning Crescent, 13% of the Moon is Illuminated
Sep 1
Waning Crescent
Sep 5
New
Sep 12
First Quarter
Sep 19
Full
Sep 26
Last Quarter

Hourly Weather History & Observations

Time (PDT) Temp. Dew Point Humidity Pressure Visibility Wind Dir Wind Speed Gust Speed Precip Events Conditions
12:58 AM 63.0 °F 38.5 °F 40% 29.91 in 10.0 mi NNE 4.6 mph - N/A   Clear
1:58 AM 61.7 °F 40.1 °F 45% 29.91 in 10.0 mi NNW 5.8 mph - N/A   Clear
2:58 AM 59.2 °F 39.7 °F 49% 29.91 in 10.0 mi North 4.6 mph - N/A   Clear
3:58 AM 57.9 °F 39.7 °F 51% 29.91 in 10.0 mi North 5.8 mph - N/A   Clear
4:58 AM 56.8 °F 40.8 °F 55% 29.90 in 10.0 mi NNE 6.9 mph - N/A   Clear
5:58 AM 55.9 °F 41.5 °F 58% 29.90 in 10.0 mi NNE 6.9 mph - N/A   Clear
6:58 AM 58.6 °F 42.4 °F 55% 29.90 in 10.0 mi NNE 9.2 mph - N/A   Clear
7:58 AM 62.4 °F 43.2 °F 49% 29.90 in 10.0 mi NNE 11.5 mph - N/A   Clear
8:58 AM 66.9 °F 44.6 °F 45% 29.90 in 10.0 mi North 11.5 mph - N/A   Clear
9:58 AM 71.1 °F 45.0 °F 39% 29.89 in 10.0 mi North 12.7 mph - N/A   Clear
10:58 AM 75.9 °F 46.0 °F 35% 29.87 in 10.0 mi NE 12.7 mph - N/A   Clear
11:58 AM 81.1 °F 46.4 °F 29% 29.85 in 10.0 mi North 11.5 mph - N/A   Clear
12:30 PM 84.2 °F 46.4 °F 27% 29.89 in 10.0 mi NE 9.2 mph - N/A Rain Light Rain
12:33 PM 84.2 °F 46.4 °F 27% 29.89 in 10.0 mi NNE 6.9 mph - N/A   Clear
12:37 PM 84.2 °F 46.4 °F 27% 29.89 in 10.0 mi ENE 8.1 mph - N/A Rain Light Rain
12:58 PM 84.6 °F 46.9 °F 27% 29.85 in 10.0 mi NNE 6.9 mph - 0.00 in   Light Drizzle
1:58 PM 87.8 °F 46.8 °F 24% 29.83 in 10.0 mi Variable 5.8 mph - 0.00 in Rain Light Rain
2:09 PM 86.0 °F 48.2 °F 27% 29.86 in 10.0 mi Variable 6.9 mph - N/A   Partly Cloudy
2:10 PM 86.0 °F 48.2 °F 27% 29.86 in 10.0 mi East 9.2 mph - N/A   Light Drizzle
2:11 PM 86.0 °F 46.4 °F 25% 29.86 in 10.0 mi East 6.9 mph - N/A   Scattered Clouds
2:14 PM 87.8 °F 46.4 °F 24% 29.86 in 10.0 mi Variable 5.8 mph - N/A   Light Drizzle
2:58 PM 90.5 °F 47.3 °F 22% 29.80 in 10.0 mi ESE 8.1 mph - 0.00 in   Light Drizzle
3:10 PM 91.4 °F 44.6 °F 20% 29.84 in 10.0 mi ESE 11.5 mph 18.4 mph N/A   Clear
3:19 PM 91.4 °F 42.8 °F 18% 29.84 in 10.0 mi SSE 15.0 mph 21.9 mph N/A   Clear
3:27 PM 91.4 °F 42.8 °F 18% 29.84 in 10.0 mi SSE 12.7 mph - N/A Rain Light Rain
3:37 PM 89.6 °F 44.6 °F 21% 29.84 in 10.0 mi SSE 15.0 mph 20.7 mph N/A   Scattered Clouds
3:58 PM 88.3 °F 44.6 °F 22% 29.80 in 10.0 mi South 13.8 mph - 0.00 in   Scattered Clouds
4:58 PM 87.6 °F 46.0 °F 24% 29.78 in 10.0 mi SSE 10.4 mph - N/A   Clear
5:58 PM 86.9 °F 44.2 °F 22% 29.78 in 10.0 mi SSE 8.1 mph - N/A   Clear
6:43 PM 84.2 °F 44.6 °F 25% 29.82 in 10.0 mi South 10.4 mph - N/A   Light Drizzle
6:52 PM 84.2 °F 46.4 °F 27% 29.83 in 10.0 mi South 6.9 mph - N/A   Clear
6:58 PM 83.1 °F 45.5 °F 27% 29.80 in 10.0 mi South 6.9 mph - 0.00 in   Clear
7:26 PM 78.8 °F 46.4 °F 32% 29.83 in 10.0 mi SSE 4.6 mph - N/A   Light Drizzle
7:30 PM 78.8 °F 46.4 °F 32% 29.83 in 10.0 mi SSE 4.6 mph - N/A   Clear
7:58 PM 75.0 °F 46.0 °F 36% 29.80 in 10.0 mi SSE 5.8 mph - 0.00 in   Clear
8:58 PM 75.4 °F 45.9 °F 35% 29.81 in 10.0 mi South 5.8 mph - N/A   Partly Cloudy
9:58 PM 71.4 °F 46.4 °F 41% 29.81 in 10.0 mi East 2.3 mph - N/A   Clear
10:58 PM 70.7 °F 45.1 °F 40% 29.81 in 10.0 mi SE 2.3 mph - N/A   Scattered Clouds
11:58 PM 68.5 °F 45.3 °F 43% 29.81 in 10.0 mi Calm Calm - N/A   Partly Cloudy